GW3646 Weather Reports


Display with metric or nautical units.
time (UTC)temp
F
wind
direction
speed
MPH
gust
MPH
rain 1hr
in
rain 24hr
in
rain mn
in
humidity
%
barometer
mb
20260905212012 100 246 1.0 8.0 0.00 0.00 0.00 35 1011.9
20260905211534 100 259 0.0 6.0 0.00 0.00 0.00 37 1012.0
20260905211013 100 335 2.0 6.0 0.00 0.00 0.00 37 1012.2
20260905210515 100 270 0.0 6.0 0.00 0.00 0.00 37 1012.3
20260905210029 100 277 1.0 7.0 0.00 0.00 0.00 36 1012.3
20260905205516 100 249 1.0 7.0 0.00 0.00 0.00 35 1012.4
20260905205016 101 269 3.0 6.0 0.00 0.00 0.00 34 1012.4
20260905204535 101 259 1.0 6.0 0.00 0.00 0.00 34 1012.5
20260905204006 101 165 1.0 9.0 0.00 0.00 0.00 33 1012.6
20260905203504 101 312 2.0 9.0 0.00 0.00 0.00 34 1012.7
20260905203013 101 282 1.0 6.0 0.00 0.00 0.00 34 1012.8
20260905202507 101 262 2.0 6.0 0.00 0.00 0.00 35 1012.9
20260905202007 101 207 1.0 8.0 0.00 0.00 0.00 35 1012.9
20260905201519 101 252 2.0 8.0 0.00 0.00 0.00 36 1013.1
20260905201009 101 150 2.0 7.0 0.00 0.00 0.00 37 1013.1
20260905200513 100 266 1.0 8.0 0.00 0.00 0.00 38 1013.2
20260905200023 100 176 1.0 8.0 0.00 0.00 0.00 38 1013.2
20260905195516 100 248 1.0 6.0 0.00 0.00 0.00 38 1013.3
20260905195016 100 10 0.0 9.0 0.00 0.00 0.00 38 1013.3
20260905194530 100 215 2.0 9.0 0.00 0.00 0.00 38 1013.4
20260905194014 100 305 2.0 7.0 0.00 0.00 0.00 38 1013.4
20260905193514 100 34 0.0 5.0 0.00 0.00 0.00 37 1013.5
20260905193032 100 301 1.0 7.0 0.00 0.00 0.00 39 1013.5
20260905192510 100 165 2.0 7.0 0.00 0.00 0.00 39 1013.6
20260905192006 99 292 2.0 6.0 0.00 0.00 0.00 38 1013.6
20260905191515 99 204 1.0 6.0 0.00 0.00 0.00 39 1013.6
20260905191010 99 257 1.0 4.0 0.00 0.00 0.00 38 1013.6
20260905190506 99 144 0.0 8.0 0.00 0.00 0.00 38 1013.7
20260905190023 99 246 4.0 8.0 0.00 0.00 0.00 38 1013.8
20260905185511 99 221 2.0 7.0 0.00 0.00 0.00 41 1013.9
20260905185011 98 313 3.0 7.0 0.00 0.00 0.00 40 1013.9
20260905184539 98 182 2.0 6.0 0.00 0.00 0.00 42 1014.0
20260905184014 98 277 0.0 6.0 0.00 0.00 0.00 41 1014.1
20260905183517 98 337 2.0 5.0 0.00 0.00 0.00 42 1014.2
20260905183032 98 304 1.0 7.0 0.00 0.00 0.00 41 1014.3
20260905182517 98 105 2.0 7.0 0.00 0.00 0.00 41 1014.4
20260905182016 99 243 1.0 6.0 0.00 0.00 0.00 41 1014.5
20260905181534 99 239 1.0 8.0 0.00 0.00 0.00 42 1014.4
20260905181008 98 294 2.0 8.0 0.00 0.00 0.00 42 1014.5
20260905180507 98 167 2.0 8.0 0.00 0.00 0.00 43 1014.4
20260905180019 98 275 0.0 7.0 0.00 0.00 0.00 43 1014.6
20260905175513 97 275 2.0 7.0 0.00 0.00 0.00 45 1014.6
20260905175010 96 206 1.0 7.0 0.00 0.00 0.00 45 1014.6
20260905174526 96 70 2.0 8.0 0.00 0.00 0.00 43 1014.7
20260905174010 96 271 3.0 8.0 0.00 0.00 0.00 45 1014.8
20260905173514 96 237 2.0 7.0 0.00 0.00 0.00 44 1014.8
20260905173028 96 256 2.0 7.0 0.00 0.00 0.00 44 1014.8
20260905172518 96 290 2.0 7.0 0.00 0.00 0.00 45 1014.9
20260905172014 96 262 2.0 7.0 0.00 0.00 0.00 44 1015.0
20260905171530 96 270 4.0 7.0 0.00 0.00 0.00 45 1015.0
20260905171015 96 266 1.0 6.0 0.00 0.00 0.00 46 1015.0
20260905170516 95 282 1.0 7.0 0.00 0.00 0.00 47 1015.1
20260905170032 95 241 2.0 7.0 0.00 0.00 0.00 48 1015.1
20260905165518 95 265 1.0 7.0 0.00 0.00 0.00 47 1015.1
20260905165006 94 298 2.0 9.0 0.00 0.00 0.00 48 1015.1
20260905164520 94 260 1.0 9.0 0.00 0.00 0.00 49 1015.2
20260905164010 94 276 1.0 6.0 0.00 0.00 0.00 49 1015.1
20260905163512 94 238 1.0 8.0 0.00 0.00 0.00 49 1015.1
20260905163032 93 230 0.0 8.0 0.00 0.00 0.00 49 1015.2
20260905162512 93 163 2.0 9.0 0.00 0.00 0.00 51 1015.1
20260905162015 93 235 1.0 9.0 0.00 0.00 0.00 50 1015.1
20260905161537 92 121 1.0 7.0 0.00 0.00 0.00 52 1015.1
20260905161015 92 109 2.0 7.0 0.00 0.00 0.00 50 1015.0
20260905160515 92 248 1.0 7.0 0.00 0.00 0.00 54 1015.0
20260905160010 92 259 2.0 6.0 0.00 0.00 0.00 52 1015.1
20260905155506 91 252 1.0 6.0 0.00 0.00 0.00 53 1015.0
20260905155007 91 326 1.0 6.0 0.00 0.00 0.00 54 1015.0
20260905154514 91 269 2.0 6.0 0.00 0.00 0.00 54 1015.0
20260905154010 90 198 1.0 5.0 0.00 0.00 0.00 54 1015.0
20260905153511 90 281 1.0 5.0 0.00 0.00 0.00 55 1015.0
20260905153021 90 196 1.0 4.0 0.00 0.00 0.00 56 1014.9
20260905152512 89 296 0.0 4.0 0.00 0.00 0.00 57 1014.9
20260905152003 89 178 1.0 6.0 0.00 0.00 0.00 59 1014.9
20260905151505 89 265 1.0 6.0 0.00 0.00 0.00 58 1014.9
20260905151004 88 169 2.0 5.0 0.00 0.00 0.00 58 1014.9
20260905150503 88 243 0.0 5.0 0.00 0.00 0.00 60 1014.7
20260905150008 87 254 0.0 6.0 0.00 0.00 0.00 59 1014.9
20260905145505 87 269 1.0 6.0 0.00 0.00 0.00 60 1014.7
20260905145004 87 273 1.0 6.0 0.00 0.00 0.00 60 1014.6
20260905144512 86 286 1.0 6.0 0.00 0.00 0.00 62 1014.5
20260905144008 86 317 2.0 6.0 0.00 0.00 0.00 61 1014.4
20260905143508 86 256 1.0 4.0 0.00 0.00 0.00 62 1014.5
20260905143023 85 329 1.0 6.0 0.00 0.00 0.00 63 1014.5
20260905142508 85 255 1.0 6.0 0.00 0.00 0.00 64 1014.4
20260905142008 84 256 1.0 6.0 0.00 0.00 0.00 64 1014.4
20260905141533 83 173 0.0 3.0 0.00 0.00 0.00 65 1014.4
20260905141012 83 254 0.0 4.0 0.00 0.00 0.00 67 1014.3
20260905140503 82 162 0.0 4.0 0.00 0.00 0.00 68 1014.3
20260905140006 81 271 1.0 4.0 0.00 0.00 0.00 70 1014.3
20260905135503 80 207 0.0 3.0 0.00 0.00 0.00 72 1014.3
20260905135002 79 271 0.0 2.0 0.00 0.00 0.00 73 1014.3
20260905134508 79 291 0.0 3.0 0.00 0.00 0.00 73 1014.3
20260905134004 78 185 0.0 3.0 0.00 0.00 0.00 75 1014.3
20260905133505 78 193 0.0 3.0 0.00 0.00 0.00 76 1014.3
20260905133014 77 168 0.0 2.0 0.00 0.00 0.00 77 1014.3
20260905132505 76 281 0.0 5.0 0.00 0.00 0.00 79 1014.3
20260905132011 75 198 0.0 5.0 0.00 0.00 0.00 80 1014.3
20260905131521 75 244 0.0 0.0 0.00 0.00 0.00 81 1014.3
20260905131011 74 244 0.0 0.0 0.00 0.00 0.00 82 1014.2
20260905130510 74 244 0.0 0.0 0.00 0.00 0.00 82 1014.1
20260905130033 73 244 0.0 0.0 0.00 0.00 0.00 83 1014.0
20260905125514 73 244 0.0 0.0 0.00 0.00 0.00 83 1014.0
20260905125014 73 244 0.0 0.0 0.00 0.00 0.00 83 1014.0
20260905124509 72 244 0.0 0.0 0.00 0.00 0.00 84 1014.0
20260905124006 72 244 0.0 0.0 0.00 0.00 0.00 84 1014.0
20260905123504 72 244 0.0 0.0 0.00 0.00 0.00 85 1014.0
20260905123019 72 244 0.0 0.0 0.00 0.00 0.00 85 1014.0
20260905122510 72 244 0.0 0.0 0.00 0.00 0.00 85 1014.0
20260905122006 72 244 0.0 0.0 0.00 0.00 0.00 85 1014.0
20260905121525 72 244 0.0 0.0 0.00 0.00 0.00 85 1013.8
20260905121010 72 244 0.0 0.0 0.00 0.00 0.00 85 1013.8
20260905120512 72 244 0.0 0.0 0.00 0.00 0.00 85 1013.8
20260905120028 72 244 0.0 0.0 0.00 0.00 0.00 84 1013.7
20260905115511 72 244 0.0 0.0 0.00 0.00 0.00 84 1013.6
20260905115011 72 244 0.0 0.0 0.00 0.00 0.00 84 1013.6
20260905114527 72 244 0.0 0.0 0.00 0.00 0.00 84 1013.6
20260905114015 72 244 0.0 0.0 0.00 0.00 0.00 84 1013.5
20260905113515 72 244 0.0 0.0 0.00 0.00 0.00 83 1013.5
20260905113010 72 244 0.0 0.0 0.00 0.00 0.00 83 1013.5
20260905112506 72 244 0.0 0.0 0.00 0.00 0.00 83 1013.6
20260905112010 72 244 0.0 0.0 0.00 0.00 0.00 83 1013.5
20260905111517 72 244 0.0 0.0 0.00 0.00 0.00 82 1013.5
20260905111007 73 244 0.0 0.0 0.00 0.00 0.00 82 1013.6
20260905110511 73 244 0.0 0.0 0.00 0.00 0.00 82 1013.6
20260905110023 73 244 0.0 0.0 0.00 0.00 0.00 82 1013.6
20260905105511 73 244 0.0 0.0 0.00 0.00 0.00 82 1013.5
20260905105014 73 244 0.0 0.0 0.00 0.00 0.00 82 1013.6
20260905104533 73 244 0.0 0.0 0.00 0.00 0.00 82 1013.6
20260905104015 73 244 0.0 0.0 0.00 0.00 0.00 82 1013.6
20260905103517 73 244 0.0 0.0 0.00 0.00 0.00 82 1013.6
20260905103036 73 244 0.0 0.0 0.00 0.00 0.00 81 1013.6
20260905102515 74 244 0.0 0.0 0.00 0.00 0.00 81 1013.7
20260905102016 74 244 0.0 0.0 0.00 0.00 0.00 81 1013.7
20260905101513 74 244 0.0 0.0 0.00 0.00 0.00 81 1013.6
20260905101007 74 244 0.0 0.0 0.00 0.00 0.00 81 1013.7
20260905100506 74 244 0.0 0.0 0.00 0.00 0.00 80 1013.8
20260905100019 74 244 0.0 0.0 0.00 0.00 0.00 80 1013.8
20260905095508 74 244 0.0 0.0 0.00 0.00 0.00 80 1013.8
20260905095013 74 244 0.0 0.0 0.00 0.00 0.00 80 1013.9
20260905094524 74 244 0.0 0.0 0.00 0.00 0.00 80 1013.9
20260905094013 74 244 0.0 0.0 0.00 0.00 0.00 80 1013.9
20260905093512 75 244 0.0 0.0 0.00 0.00 0.00 79 1013.9
20260905093029 75 244 0.0 0.0 0.00 0.00 0.00 79 1013.9
20260905092514 75 244 0.0 0.0 0.00 0.00 0.00 79 1013.8
20260905092015 75 244 0.0 0.0 0.00 0.00 0.00 79 1014.0
20260905091529 75 244 0.0 0.0 0.00 0.00 0.00 78 1013.9
20260905091017 75 244 0.0 0.0 0.00 0.00 0.00 78 1013.9
20260905090518 75 244 0.0 0.0 0.00 0.00 0.00 78 1013.9
20260905090016 76 244 0.0 0.0 0.00 0.00 0.00 77 1013.8
20260905085507 76 244 0.0 0.0 0.00 0.00 0.00 77 1013.8
20260905085010 76 244 0.0 0.0 0.00 0.00 0.00 76 1013.9
20260905084520 76 244 0.0 0.0 0.00 0.00 0.00 76 1013.8
20260905084012 76 244 0.0 0.0 0.00 0.00 0.00 75 1013.8
20260905083514 77 244 0.0 0.0 0.00 0.00 0.00 75 1013.8
20260905083028 77 244 0.0 0.0 0.00 0.00 0.00 74 1013.7
20260905082514 77 244 0.0 0.0 0.00 0.00 0.00 74 1013.8
20260905082014 77 244 0.0 0.0 0.00 0.00 0.00 74 1013.8
20260905081530 77 244 0.0 0.0 0.00 0.00 0.00 73 1013.8
20260905081016 78 244 0.0 0.0 0.00 0.00 0.00 73 1013.8
20260905080515 78 244 0.0 0.0 0.00 0.00 0.00 72 1013.8
20260905080039 78 244 0.0 0.0 0.00 0.00 0.00 72 1013.8
20260905075516 78 244 0.0 0.0 0.00 0.00 0.00 72 1013.9
20260905075016 79 244 0.0 0.0 0.00 0.00 0.00 71 1013.8
20260905074520 79 244 0.0 0.0 0.00 0.00 0.00 71 1013.7
20260905074006 79 244 0.0 0.0 0.00 0.00 0.00 70 1013.7
20260905073510 79 244 0.0 0.0 0.00 0.00 0.00 70 1013.6
20260905073033 79 244 0.0 1.0 0.00 0.00 0.00 70 1013.7
20260905072510 79 244 0.0 1.0 0.00 0.00 0.00 69 1013.6
20260905072011 80 244 0.0 0.0 0.00 0.00 0.00 69 1013.6
20260905071529 80 244 0.0 1.0 0.00 0.00 0.00 69 1013.6
20260905071014 80 244 0.0 1.0 0.00 0.00 0.00 69 1013.6
20260905070516 80 244 0.0 1.0 0.00 0.00 0.00 68 1013.6
20260905070059 80 244 0.0 2.0 0.00 0.00 0.00 68 1013.5
20260905065515 80 244 0.0 2.0 0.00 0.00 0.00 68 1013.6
20260905065019 80 244 0.0 1.0 0.00 0.00 0.00 68 1013.5
20260905064531 80 244 0.0 0.0 0.00 0.00 0.00 68 1013.5
20260905064015 80 244 0.0 0.0 0.00 0.00 0.00 67 1013.3
20260905063516 80 311 0.0 0.0 0.00 0.00 0.00 68 1013.4
20260905063020 80 311 0.0 2.0 0.00 0.00 0.00 68 1013.4
20260905062510 80 311 0.0 2.0 0.00 0.00 0.00 68 1013.3
20260905062011 80 186 0.0 1.0 0.00 0.00 0.00 68 1013.3
20260905061504 80 186 0.0 1.0 0.00 0.00 0.00 68 1013.3
20260905061003 80 186 0.0 0.0 0.00 0.00 0.00 68 1013.3
20260905060504 81 186 0.0 0.0 0.00 0.00 0.00 67 1013.2
20260905060004 81 186 0.0 1.0 0.00 0.00 0.00 68 1013.2
20260905055503 81 186 0.0 3.0 0.00 0.00 0.00 68 1013.1
20260905055004 81 186 0.0 3.0 0.00 0.00 0.00 67 1013.2
20260905054529 81 186 0.0 3.0 0.00 0.00 0.00 67 1013.1
20260905054003 81 186 0.0 3.0 0.00 0.00 0.00 67 1013.1
20260905053503 81 186 0.0 0.0 0.00 0.00 0.00 67 1013.1
20260905053013 81 186 0.0 0.0 0.00 0.00 0.00 68 1013.2
20260905052507 81 186 0.0 0.0 0.00 0.00 0.00 68 1013.2
20260905052006 81 186 0.0 0.0 0.00 0.00 0.00 68 1013.2
20260905051518 81 186 0.0 0.0 0.00 0.00 0.00 68 1013.3
20260905051006 81 186 0.0 0.0 0.00 0.00 0.00 68 1013.4
20260905050506 81 186 0.0 0.0 0.00 0.00 0.00 68 1013.4
20260905050003 81 186 0.0 0.0 0.00 0.00 0.00 68 1013.4
20260905045502 81 186 0.0 0.0 0.00 0.00 0.00 68 1013.6
20260905045002 81 186 0.0 0.0 0.00 0.00 0.00 67 1013.6
20260905044507 81 186 0.0 0.0 0.00 0.00 0.00 67 1013.6
20260905044005 81 186 0.0 0.0 0.00 0.00 0.00 67 1013.6
20260905043505 81 186 0.0 0.0 0.00 0.00 0.00 67 1013.6
20260905043012 81 186 0.0 0.0 0.00 0.00 0.00 67 1013.5
20260905042506 81 186 0.0 0.0 0.00 0.00 0.00 67 1013.6
20260905042006 81 186 0.0 0.0 0.00 0.00 0.00 67 1013.5
20260905041514 81 186 0.0 1.0 0.00 0.00 0.00 67 1013.5
20260905041008 81 186 0.0 1.0 0.00 0.00 0.00 67 1013.5
20260905040508 81 186 0.0 1.0 0.00 0.00 0.00 68 1013.5
20260905040021 81 186 0.0 1.0 0.00 0.00 0.00 67 1013.5
20260905035508 81 186 0.0 1.0 0.00 0.00 0.00 68 1013.5
20260905035007 81 186 0.0 0.0 0.00 0.00 0.00 67 1013.6
20260905034520 81 186 0.0 0.0 0.00 0.00 0.00 68 1013.7
20260905034001 81 186 0.0 0.0 0.00 0.00 0.00 68 1013.7
20260905033502 81 186 0.0 0.0 0.00 0.00 0.00 68 1013.7
20260905033016 81 186 0.0 0.0 0.00 0.00 0.00 68 1013.7
20260905032503 81 186 0.0 0.0 0.00 0.00 0.00 68 1013.7
20260905032006 81 186 0.0 0.0 0.00 0.00 0.00 68 1013.6
20260905031516 81 186 0.0 0.0 0.00 0.00 0.00 69 1013.6
20260905031008 81 186 0.0 0.0 0.00 0.00 0.00 69 1013.6
20260905030507 81 186 0.0 0.0 0.00 0.00 0.00 69 1013.5
20260905030018 81 186 0.0 0.0 0.00 0.00 0.00 69 1013.4
20260905025508 81 186 0.0 0.0 0.00 0.00 0.00 69 1013.4
20260905025013 81 186 0.0 0.0 0.00 0.00 0.00 69 1013.4
20260905024518 81 186 0.0 0.0 0.00 0.00 0.00 68 1013.2
20260905024009 82 186 0.0 0.0 0.00 0.00 0.00 68 1013.2
20260905023507 82 186 0.0 0.0 0.00 0.00 0.00 67 1013.1
20260905023028 82 186 0.0 0.0 0.00 0.00 0.00 67 1013.1
20260905022506 82 186 0.0 0.0 0.00 0.00 0.00 67 1012.9
20260905022003 83 186 0.0 0.0 0.00 0.00 0.00 67 1012.8
20260905021510 83 186 0.0 0.0 0.00 0.00 0.00 66 1012.7
20260905021006 83 186 0.0 0.0 0.00 0.00 0.00 65 1012.5
20260905020507 84 186 0.0 0.0 0.00 0.00 0.00 65 1012.3
20260905020018 84 186 0.0 0.0 0.00 0.00 0.00 63 1012.2
20260905015508 85 186 0.0 0.0 0.00 0.00 0.00 63 1012.2
20260905015008 85 186 0.0 0.0 0.00 0.00 0.00 64 1012.2
20260905014520 86 186 0.0 0.0 0.00 0.00 0.00 63 1012.1
20260905014008 86 186 0.0 0.0 0.00 0.00 0.00 62 1012.1
20260905013510 87 186 0.0 0.0 0.00 0.00 0.00 61 1011.9
20260905013025 87 186 0.0 0.0 0.00 0.00 0.00 60 1011.8
20260905012508 88 186 0.0 0.0 0.00 0.00 0.00 58 1011.8
20260905012010 88 186 0.0 0.0 0.00 0.00 0.00 57 1011.9
20260905011525 89 186 0.0 0.0 0.00 0.00 0.00 54 1011.8
20260905011007 89 186 0.0 0.0 0.00 0.00 0.00 54 1011.8
20260905010505 90 186 0.0 1.0 0.00 0.00 0.00 53 1011.9
20260905010016 90 186 0.0 1.0 0.00 0.00 0.00 52 1011.8
20260905005507 91 186 0.0 1.0 0.00 0.00 0.00 51 1011.8
20260905005008 91 186 0.0 2.0 0.00 0.00 0.00 50 1011.8
20260905004521 92 186 0.0 3.0 0.00 0.00 0.00 50 1011.7
20260905004012 92 186 0.0 3.0 0.00 0.00 0.00 49 1011.7
20260905003512 92 179 0.0 3.0 0.00 0.00 0.00 49 1011.8
20260905003024 93 201 0.0 3.0 0.00 0.00 0.00 48 1011.7
20260905002510 93 191 0.0 3.0 0.00 0.00 0.00 48 1011.7
20260905002008 93 5 0.0 3.0 0.00 0.00 0.00 48 1011.7
20260905001527 94 177 0.0 3.0 0.00 0.00 0.00 47 1011.7
20260905001011 94 186 0.0 3.0 0.00 0.00 0.00 47 1011.7
20260905000512 94 279 1.0 3.0 0.00 0.00 0.00 46 1011.7
20260905000025 94 221 0.0 6.0 0.00 0.00 0.00 46 1011.7
20260904235505 95 279 1.0 6.0 0.00 0.00 0.00 46 1011.7
20260904235007 95 277 0.0 8.0 0.00 0.00 0.00 46 1011.7
20260904234528 95 123 2.0 8.0 0.00 0.00 0.00 46 1011.6
20260904234007 95 190 1.0 8.0 0.00 0.00 0.00 46 1011.6
20260904233509 96 227 1.0 8.0 0.00 0.00 0.00 44 1011.6
20260904233020 96 272 1.0 7.0 0.00 0.00 0.00 44 1011.6
20260904232512 97 153 2.0 7.0 0.00 0.00 0.00 44 1011.6
20260904232010 97 148 1.0 9.0 0.00 0.00 0.00 43 1011.5
20260904231524 97 228 1.0 9.0 0.00 0.00 0.00 44 1011.6
20260904231013 97 185 2.0 11.0 0.00 0.00 0.00 44 1011.6
20260904230511 97 288 3.0 11.0 0.00 0.00 0.00 43 1011.6
20260904230026 97 267 5.0 10.0 0.00 0.00 0.00 43 1011.5
20260904225511 97 248 2.0 11.0 0.00 0.00 0.00 44 1011.6
20260904225016 98 268 1.0 11.0 0.00 0.00 0.00 43 1011.6
20260904224531 98 190 2.0 10.0 0.00 0.00 0.00 42 1011.6
20260904224008 98 209 4.0 10.0 0.00 0.00 0.00 43 1011.6
20260904223507 98 273 1.0 8.0 0.00 0.00 0.00 43 1011.5
20260904223016 98 344 2.0 8.0 0.00 0.00 0.00 43 1011.5
20260904222509 98 200 1.0 8.0 0.00 0.00 0.00 43 1011.6
20260904222008 98 190 2.0 6.0 0.00 0.00 0.00 42 1011.6
20260904221532 98 282 0.0 8.0 0.00 0.00 0.00 43 1011.5
20260904221012 98 280 3.0 8.0 0.00 0.00 0.00 43 1011.6
20260904220515 98 230 2.0 8.0 0.00 0.00 0.00 43 1011.6
20260904220029 98 252 2.0 11.0 0.00 0.00 0.00 44 1011.5
20260904215512 99 261 3.0 11.0 0.00 0.00 0.00 43 1011.6
20260904215012 99 302 1.0 8.0 0.00 0.00 0.00 43 1011.7
20260904214524 98 271 2.0 8.0 0.00 0.00 0.00 44 1011.7
20260904214010 98 304 3.0 8.0 0.00 0.00 0.00 43 1011.7
20260904213511 98 239 1.0 7.0 0.00 0.00 0.00 44 1011.7
20260904213031 98 268 2.0 7.0 0.00 0.00 0.00 43 1011.8
20260904212509 98 279 1.0 8.0 0.00 0.00 0.00 43 1011.8